Starlink 35161

operational
NORAD ID: 65936 Int'l Des: 2025-225 Owner: SPXS Country: US Constellation: starlink
LEOCIRCULAR

Über Starlink 35161

Beschreibung wird geladen...

Live-Position

3D-Globus wird geladen...

Nächste Überflüge

Höhenverlauf

Altitude vs Time

uPlot chart will show altitude changes over time

Zweizeiliger Elementsatz

1 65936U 25225AC 26062.60990168 .00031081 00000-0 10565-2 0 9992
2 65936 53.1602 194.1733 0001239 147.5766 212.5312 15.30219740 22582
Epoch: 3. März 2026 • Age: 42 hours

Aktueller Status

Höhe 480.9 km
Geschwindigkeit 7.63 km/s
Subsatellitenpunkt 52.79°N, 137.99°W
Startdatum 8. Okt. 2025
Alter 0.4 years
Typ internet

Technische Details

Klassifizierung Payload
Masse 575.00 kg
Trockenmasse 530.00 kg
Gesamtmasse 575.00 kg
Länge 0.30 m
Durchmesser 4.10 m
Spannweite 29.00 m
Form Box + pan
Hersteller SPXS
Bus-Typ Starlink V2MO
Phasenstatus In Orbit
Besitzer/Staat SPXS/US

Große Konstellationen

Loading constellations...